BAW1021 SPJL-SPZO

Flight info

Callsign BAW1021
Flight time 0h 26m
Altitude 30000
Route ILMOX
Aircraft L101/H-SDFGHIRWXY/S

Departure

Time 2026-04-30 18:41
Airport Inca Manco Capac International Airport (SPJL)

Arrival

Time 2026-04-30 19:08
Airport Alejandro Velasco Astete International Airport (SPZO)
Time Latitude Longitude Altitude Speed Heading
2026-04-30 18:18 -15.46999 -70.15586 12565 ft 0 kts 167°
2026-04-30 18:26 -15.46991 -70.15588 12563 ft 2 kts 167°
2026-04-30 18:26 -15.46976 -70.15591 12563 ft 2 kts 167°
2026-04-30 18:26 -15.46960 -70.15595 12563 ft 2 kts 165°
2026-04-30 18:27 -15.46936 -70.15607 12563 ft 0 kts 114°
2026-04-30 18:28 -15.46936 -70.15606 12563 ft 0 kts 114°
2026-04-30 18:29 -15.46939 -70.15600 12563 ft 2 kts 114°
2026-04-30 18:29 -15.46919 -70.15528 12563 ft 6 kts 17°
2026-04-30 18:30 -15.46897 -70.15521 12563 ft 0 kts 19°
2026-04-30 18:31 -15.46892 -70.15519 12563 ft 2 kts 19°
2026-04-30 18:31 -15.46840 -70.15501 12563 ft 6 kts 20°
2026-04-30 18:32 -15.46830 -70.15418 12564 ft 9 kts 114°
2026-04-30 18:32 -15.46860 -70.15340 12562 ft 14 kts 109°
2026-04-30 18:32 -15.46957 -70.15106 12561 ft 21 kts 107°
2026-04-30 18:33 -15.47005 -70.14954 12561 ft 24 kts 114°
2026-04-30 18:33 -15.47135 -70.14611 12560 ft 28 kts 118°
2026-04-30 18:33 -15.47217 -70.14427 12561 ft 28 kts 112°
2026-04-30 18:34 -15.47289 -70.14245 12561 ft 27 kts 113°
2026-04-30 18:34 -15.47405 -70.14003 12561 ft 9 kts 71°
2026-04-30 18:34 -15.47378 -70.13982 12561 ft 5 kts
2026-04-30 18:35 -15.47342 -70.14007 12561 ft 11 kts 293°
2026-04-30 18:35 -15.47342 -70.14097 12561 ft 13 kts 281°
2026-04-30 18:35 -15.47334 -70.14127 12561 ft 0 kts 288°
2026-04-30 18:40 -15.47286 -70.14260 12561 ft 58 kts 292°
2026-04-30 18:40 -15.47028 -70.14919 12561 ft 137 kts 292°
2026-04-30 18:41 -15.46608 -70.16008 13056 ft 175 kts 291°
2026-04-30 18:41 -15.46151 -70.17251 13843 ft 199 kts 289°
2026-04-30 18:41 -15.45656 -70.18700 14522 ft 224 kts 288°
2026-04-30 18:41 -15.45117 -70.20255 15386 ft 237 kts 289°
2026-04-30 18:42 -15.44544 -70.21903 16077 ft 255 kts 289°
2026-04-30 18:42 -15.42949 -70.25811 16810 ft 334 kts 306°
2026-04-30 18:42 -15.41229 -70.27491 17743 ft 346 kts 329°
2026-04-30 18:45 -15.18139 -70.37494 24168 ft 425 kts 321°
2026-04-30 18:45 -15.15780 -70.39430 24422 ft 438 kts 321°
2026-04-30 18:45 -15.13408 -70.41369 25328 ft 431 kts 321°
2026-04-30 18:46 -15.11055 -70.43269 26204 ft 429 kts 322°
2026-04-30 18:46 -15.08708 -70.45145 26744 ft 436 kts 322°
2026-04-30 18:46 -15.06267 -70.47082 27079 ft 452 kts 322°
2026-04-30 18:46 -15.03711 -70.49101 27396 ft 473 kts 322°
2026-04-30 18:47 -15.01054 -70.51195 27687 ft 485 kts 322°
2026-04-30 18:47 -14.98362 -70.53313 27793 ft 487 kts 322°
2026-04-30 18:47 -14.95656 -70.55442 27767 ft 492 kts 322°
2026-04-30 18:47 -14.92924 -70.57588 27321 ft 494 kts 322°
2026-04-30 18:48 -14.90191 -70.59732 26804 ft 492 kts 322°
2026-04-30 18:48 -14.87471 -70.61863 26328 ft 490 kts 322°
2026-04-30 18:48 -14.84766 -70.63981 25858 ft 488 kts 322°
2026-04-30 18:48 -14.82099 -70.66069 25400 ft 486 kts 322°
2026-04-30 18:49 -14.79410 -70.68171 24943 ft 484 kts 322°
2026-04-30 18:49 -14.76764 -70.70239 24489 ft 461 kts 323°
2026-04-30 18:49 -14.74297 -70.72193 24052 ft 438 kts 321°
2026-04-30 18:49 -14.71997 -70.74211 23635 ft 431 kts 319°
2026-04-30 18:50 -14.69762 -70.76268 23147 ft 430 kts 318°
2026-04-30 18:50 -14.67537 -70.78317 22615 ft 428 kts 318°
2026-04-30 18:50 -14.65307 -70.80340 22138 ft 425 kts 319°
2026-04-30 18:50 -14.63072 -70.82330 21636 ft 423 kts 319°
2026-04-30 18:51 -14.60866 -70.84255 21297 ft 418 kts 320°
2026-04-30 18:51 -14.58637 -70.86167 21125 ft 416 kts 320°
2026-04-30 18:51 -14.56399 -70.88057 21038 ft 415 kts 321°
2026-04-30 18:51 -14.54146 -70.89932 21027 ft 417 kts 321°
2026-04-30 18:52 -14.51871 -70.91800 21006 ft 419 kts 321°
2026-04-30 18:52 -14.49577 -70.93661 21000 ft 419 kts 322°
2026-04-30 18:52 -14.47276 -70.95510 21006 ft 420 kts 322°
2026-04-30 18:52 -14.44961 -70.97354 21010 ft 420 kts 322°
2026-04-30 18:53 -14.42647 -70.99185 21004 ft 420 kts 322°
2026-04-30 18:53 -14.40323 -71.01012 21031 ft 420 kts 322°
2026-04-30 18:53 -14.38031 -71.02803 21013 ft 420 kts 322°
2026-04-30 18:53 -14.35699 -71.04619 21012 ft 420 kts 323°
2026-04-30 18:54 -14.33366 -71.06428 21013 ft 420 kts 323°
2026-04-30 18:54 -14.31030 -71.08233 20985 ft 420 kts 323°
2026-04-30 18:54 -14.28684 -71.10041 20764 ft 420 kts 323°
2026-04-30 18:54 -14.26343 -71.11840 20515 ft 419 kts 323°
2026-04-30 18:55 -14.24011 -71.13628 20290 ft 418 kts 323°
2026-04-30 18:55 -14.19353 -71.17191 19816 ft 416 kts 323°
2026-04-30 18:55 -14.17060 -71.18943 19587 ft 415 kts 323°
2026-04-30 18:56 -14.12445 -71.22464 19141 ft 411 kts 323°
2026-04-30 18:56 -14.10148 -71.24215 18912 ft 410 kts 323°
2026-04-30 18:56 -14.07855 -71.25965 18690 ft 409 kts 323°
2026-04-30 18:57 -14.03305 -71.29432 18248 ft 407 kts 323°
2026-04-30 18:57 -14.01037 -71.31157 17999 ft 406 kts 323°
2026-04-30 18:57 -13.98797 -71.32861 17777 ft 404 kts 323°
2026-04-30 18:58 -13.94295 -71.36287 17595 ft 402 kts 323°
2026-04-30 18:58 -13.92048 -71.38002 17593 ft 402 kts 323°
2026-04-30 18:58 -13.89817 -71.39738 17603 ft 402 kts 322°
2026-04-30 18:59 -13.85395 -71.43257 17500 ft 402 kts 322°
2026-04-30 19:00 -13.78882 -71.48521 17404 ft 397 kts 321°
2026-04-30 19:00 -13.76729 -71.50272 17296 ft 384 kts 321°
2026-04-30 19:00 -13.72890 -71.53400 16946 ft 329 kts 321°
2026-04-30 19:01 -13.69437 -71.56467 16599 ft 329 kts 314°
2026-04-30 19:01 -13.67896 -71.58197 16380 ft 327 kts 312°
2026-04-30 19:02 -13.65372 -71.62033 15923 ft 326 kts 298°
2026-04-30 19:02 -13.63466 -71.66080 15044 ft 306 kts 295°
2026-04-30 19:03 -13.61818 -71.69955 14209 ft 286 kts 293°
2026-04-30 19:03 -13.60388 -71.73541 13579 ft 263 kts 292°
2026-04-30 19:04 -13.58998 -71.77057 13028 ft 265 kts 292°
2026-04-30 19:04 -13.57656 -71.80452 12706 ft 240 kts 292°
2026-04-30 19:05 -13.56540 -71.83344 12597 ft 202 kts 292°
2026-04-30 19:05 -13.55288 -71.85768 12039 ft 183 kts 302°
2026-04-30 19:06 -13.54339 -71.87935 11484 ft 159 kts 287°
2026-04-30 19:06 -13.54117 -71.89039 11292 ft 161 kts 283°
2026-04-30 19:06 -13.53824 -71.91378 10914 ft 168 kts 276°
2026-04-30 19:07 -13.53593 -71.93663 10799 ft 129 kts 275°
2026-04-30 19:07 -13.53519 -71.94435 10820 ft 85 kts 274°
2026-04-30 19:08 -13.53528 -71.94931 10859 ft 9 kts 214°
2026-04-30 19:08 -13.53557 -71.94940 10848 ft 0 kts 184°
2026-04-30 19:09 -13.53567 -71.94940 10857 ft 0 kts 175°
2026-04-30 19:10 -13.53609 -71.94860 10845 ft 15 kts 97°
2026-04-30 19:11 -13.53623 -71.94737 10833 ft 15 kts 96°
2026-04-30 19:11 -13.53644 -71.94525 10821 ft 12 kts 97°
2026-04-30 19:11 -13.53859 -71.91001 10972 ft 167 kts 278°
2026-04-30 19:12 -13.53743 -71.92207 10781 ft 170 kts 275°
2026-04-30 19:12 -13.53630 -71.93354 10774 ft 147 kts 276°
2026-04-30 19:12 -13.53908 -71.90594 11051 ft 165 kts 277°
2026-04-30 19:13 -13.53669 -71.92962 10761 ft 160 kts 276°
2026-04-30 19:13 -13.53497 -71.94596 10827 ft 116 kts 281°